Hourly Data Report for November 02, 2018

CARBERRY CS
MANITOBA
Current Station Operator: ECCC - MSC

49°54'20.900" N
99°21'26.800" W
383.50 m
5010547
71170
WZE

Download Data

Hourly Data (November 2018)
Hourly Data Report for November 2, 2018
TIME
LST
Temp Definition
°C
Dew Point Definition
°C
Rel Hum Definition
%
Precip. Amount Definition
mm

Wind Dir Definition
10's deg

Wind Spd Definition
km/h
Visibility Definition
km
Stn Press Definition
kPa
Hmdx Definition


Wind Chill Definition


Weather Definition


00:00 1.7 1.7 100 0.0 35 3   96.79     LegendNANA
01:00 1.0 0.3 95 0.0 1 16   96.82     LegendNANA
02:00 0.3 -0.5 95 0.0 1 11   96.86     LegendNANA
03:00 0.1 -0.6 95 0.0 36 12   96.89     LegendNANA
04:00 -0.1 -0.9 94 0.0 1 13   96.90   -4 LegendNANA
05:00 -0.3 -1.1 94 0.0 1 16   96.90   -5 LegendNANA
06:00 -0.6 -1.4 94 0.0 2 16   96.92   -5 LegendNANA
07:00 -0.8 -1.6 94 0.0 2 19   96.92   -6 LegendNANA
08:00 -1.0 -1.7 95 0.0 3 22   96.95   -7 LegendNANA
09:00 -1.1 -2.0 94 0.0 4 20   96.96   -7 LegendNANA
10:00 -1.0 -2.0 93 0.0 3 17   96.95   -6 LegendNANA
11:00 -0.9 -2.0 92 0.0 5 17   96.92   -6 LegendNANA
12:00 -1.0 -2.2 91 0.0 4 19   96.89   -6 LegendNANA
13:00 -1.2 -2.1 93 0.0 5 19   96.84   -7 LegendNANA
14:00 -1.4 -2.5 92 0.0 5 20   96.80   -7 LegendNANA
15:00 -1.1 -2.1 93 0.0 5 16   96.78   -6 LegendNANA
16:00 -1.1 -2.1 93 0.0 5 16   96.82   -6 LegendNANA
17:00 -1.2 -2.0 95 0.0 5 14   96.82   -6 LegendNANA
18:00 -1.1 -1.7 95 0.0 6 17   96.81   -6 LegendNANA
19:00 -1.2 -2.1 93 0.0 6 21   96.83   -7 LegendNANA
20:00 -1.6 -2.7 92 0.0 6 23   96.90   -8 LegendNANA
21:00 -1.6 -2.8 92 0.0 7 22   96.98   -8 LegendNANA
22:00 -1.8 -3.2 90 0.0 5 16   97.03   -7 LegendNANA
23:00 -2.1 -3.7 89 0.0 4 17   97.06   -7 LegendNANA

Notes on Data Quality.

Legend

  • E = Estimated
  • M = Missing
  • NA = Not Available*
  • [empty] = Indicates an unobserved value
Date modified: